STARLINK-34468 (64424 NORAD) Tracking and Keplerian Element Data

This shows tracking and keplerian element data for the satellite.

Feedback or suggestion? Click here.




ElementValue
Catalog64424
NameSTARLINK-34468
Epoch Orbit2936
Epoch Day354.12121618
Epoch Year2025
RAAN275.2797
Inclination70.0029
Eccentricity0.0009893
Argument of Perigee11.5561
Mean Anonmoly348.5823
Mean Motion14.98168746
Decay Rate-0.00076075
L11 64424U 25129N 25354.12121618 -.00076075 00000+0 -64575-2 0 9995
L22 64424 70.0029 275.2797 0009893 11.5561 348.5823 14.98168746 29364



Live tracking and technical data element details for STARLINK-34468 (NORAD 64424). STARLINK-34468 can be tracked NOW for your location showing map with azimuth and elevation plus other details from your city location.







IsCatalogInMostPopularTable: catalog: 64424, numindb: 10
Update: records affected: 1



GetName: 64424 STARLINK-34468

Hit Count: updated at: Wed, 15 Apr 2026 01:02:17 GMT